Greenville, TX

2:48 AM CDT on August 26, 2016 (GMT -0500)
Majors

Weather History for KGVT - November, 2012

Change the Weather History Date:

Monday, November 5, 2012

  Actual Average Record
Temperature  
Mean Temperature 60 °F -  
Max Temperature 73 °F 65 °F 84 °F (2005)
Min Temperature 48 °F 51 °F 39 °F (2010)
Degree Days  
Heating Degree Days 4    
Growing Degree Days 10 (Base 50)    
Moisture  
Dew Point 42 °F    
Average Humidity 60    
Maximum Humidity 94    
Minimum Humidity 22    
Precipitation  
Precipitation 0.00 in - - ()
Sea Level Pressure  
Sea Level Pressure 30.05 in    
Wind  
Wind Speed 4 mph (NNW)    
Max Wind Speed 18 mph    
Max Gust Speed 24 mph    
Visibility 7 miles    
Events Fog    
Averages and records for this station are not official NWS values.
T = Trace of Precipitation, MM = Missing Value Source: NWS Daily Summary

Daily Weather History Graph

Daily Weather History Graph

Search for Another Location

Airport or City:

Trip Planner

Search our weather history database for the weather conditions in past years. The results will help you decide how hot, cold, wet, or windy it might be!

Date:

Astronomy

Nov. 05, 2012 Rise Set
Actual Time 6:46 AM CST 5:28 PM CST
Civil Twilight 6:20 AM CST 5:54 PM CST
Nautical Twilight 5:51 AM CST 6:24 PM CST
Astronomical Twilight 5:22 AM CST 6:53 PM CST
Moon 11:06 PM CST (11/5) 12:05 PM CST (11/5)
Length of Visible Light 11h 34m
Length of Day
10h 42m
Waning Gibbous, 62% of the Moon is Illuminated
Nov 5
Waning Gibbous
Nov 6
Last Quarter
Nov 13
New
Nov 20
First Quarter
Nov 28
Full

Hourly Weather History & Observations

Time (CST) Temp. Dew Point Humidity Pressure Visibility Wind Dir Wind Speed Gust Speed Precip Events Conditions
12:15 AM 51.8 °F 50.0 °F 94% 30.08 in 5.0 mi Calm Calm - N/A   Clear
12:35 AM 51.8 °F 50.0 °F 94% 30.08 in 2.5 mi Calm Calm - N/A   Clear
12:55 AM 51.8 °F 50.0 °F 94% 30.07 in 2.5 mi Calm Calm - N/A   Clear
1:15 AM 51.8 °F 48.2 °F 88% 30.07 in 1.0 mi Calm Calm - N/A   Mist
1:35 AM 51.8 °F 48.2 °F 88% 30.07 in 4.0 mi Calm Calm - N/A   Clear
1:55 AM 51.8 °F 50.0 °F 94% 30.07 in 1.5 mi Calm Calm - N/A   Mist
2:15 AM 50.0 °F 46.4 °F 87% 30.06 in 10.0 mi Calm Calm - N/A   Clear
2:35 AM 50.0 °F 46.4 °F 87% 30.06 in 10.0 mi Calm Calm - N/A   Clear
2:55 AM 50.0 °F 46.4 °F 87% 30.06 in 10.0 mi Calm Calm - N/A   Clear
3:15 AM 50.0 °F 46.4 °F 87% 30.06 in 10.0 mi Calm Calm - N/A   Clear
3:35 AM 50.0 °F 46.4 °F 87% 30.05 in 1.2 mi Calm Calm - N/A   Mist
3:55 AM 50.0 °F 46.4 °F 87% 30.05 in 7.0 mi Calm Calm - N/A   Scattered Clouds
4:15 AM 50.0 °F 46.4 °F 87% 30.05 in 0.5 mi Calm Calm - N/A Fog Fog
4:35 AM 50.0 °F 46.4 °F 87% 30.05 in 1.2 mi Calm Calm - N/A   Overcast
4:55 AM 48.2 °F 46.4 °F 93% 30.05 in 0.8 mi Calm Calm - N/A   Overcast
5:15 AM 48.2 °F 46.4 °F 93% 30.06 in 0.5 mi Calm Calm - N/A Fog Fog
5:35 AM 50.0 °F 48.2 °F 94% 30.06 in 0.2 mi Calm Calm - N/A Fog Fog
5:55 AM 50.0 °F 48.2 °F 94% 30.06 in 2.5 mi Calm Calm - N/A   Overcast
6:15 AM 51.8 °F 50.0 °F 94% 30.05 in 4.0 mi Calm Calm - N/A   Overcast
6:35 AM 51.8 °F 50.0 °F 94% 30.05 in 5.0 mi Calm Calm - N/A   Overcast
6:55 AM 51.8 °F 50.0 °F 94% 30.05 in 3.0 mi Calm Calm - N/A   Overcast
7:15 AM 53.6 °F 51.8 °F 94% 30.06 in 0.5 mi Calm Calm - N/A Fog Fog
7:35 AM 53.6 °F 51.8 °F 94% 30.06 in 0.5 mi Calm Calm - N/A Fog Fog
7:55 AM 55.4 °F 53.6 °F 94% 30.06 in 0.5 mi Calm Calm - N/A Fog Fog
8:15 AM 55.4 °F 53.6 °F 94% 30.07 in 0.2 mi Calm Calm - N/A Fog Fog
8:35 AM 55.4 °F 53.6 °F 94% 30.07 in 0.2 mi SSW 3.5 mph - N/A Fog Fog
8:55 AM 57.2 °F 55.4 °F 94% 30.07 in 0.8 mi Calm Calm - N/A   Overcast
9:15 AM 57.2 °F 55.4 °F 94% 30.07 in 3.0 mi West 3.5 mph - N/A   Overcast
9:35 AM 59.0 °F 55.4 °F 88% 30.07 in 7.0 mi WNW 4.6 mph - N/A   Mostly Cloudy
9:55 AM 60.8 °F 55.4 °F 82% 30.08 in 7.0 mi WNW 3.5 mph - N/A   Scattered Clouds
10:15 AM 62.6 °F 55.4 °F 77% 30.07 in 10.0 mi WNW 6.9 mph - N/A   Clear
10:35 AM 68.0 °F 51.8 °F 56% 30.07 in 10.0 mi NW 9.2 mph - N/A   Clear
10:55 AM 68.0 °F 50.0 °F 52% 30.06 in 10.0 mi NW 9.2 mph - N/A   Clear
11:15 AM 69.8 °F 46.4 °F 43% 30.06 in 10.0 mi NNW 11.5 mph - N/A   Clear
11:35 AM 71.6 °F 42.8 °F 35% 30.06 in 10.0 mi NNW 10.4 mph 19.6 mph N/A   Clear
11:55 AM 71.6 °F 42.8 °F 35% 30.04 in 10.0 mi NW 11.5 mph - N/A   Clear
12:15 PM 71.6 °F 41.0 °F 33% 30.04 in 10.0 mi North 12.7 mph 21.9 mph N/A   Clear
12:35 PM 73.4 °F 41.0 °F 31% 30.03 in 10.0 mi North 13.8 mph 17.3 mph N/A   Clear
12:55 PM 73.4 °F 41.0 °F 31% 30.02 in 10.0 mi NNW 18.4 mph 24.2 mph N/A   Clear
1:15 PM 73.4 °F 41.0 °F 31% 30.02 in 10.0 mi North 9.2 mph 19.6 mph N/A   Clear
1:55 PM 73.4 °F 37.4 °F 27% 30.01 in 10.0 mi North 10.4 mph - N/A   Clear
2:15 PM 73.4 °F 37.4 °F 27% 30.01 in 10.0 mi NNW 12.7 mph 23.0 mph N/A   Clear
2:35 PM 73.4 °F 37.4 °F 27% 30.00 in 10.0 mi NW 12.7 mph - N/A   Clear
2:55 PM 73.4 °F 33.8 °F 23% 30.00 in 10.0 mi NNW 17.3 mph - N/A   Clear
3:15 PM 73.4 °F 33.8 °F 23% 30.00 in 10.0 mi NNW 12.7 mph 21.9 mph N/A   Clear
3:35 PM 73.4 °F 32.0 °F 22% 30.01 in 10.0 mi NNW 16.1 mph 24.2 mph N/A   Clear
3:55 PM 73.4 °F 33.8 °F 23% 30.00 in 10.0 mi NW 10.4 mph - N/A   Clear
4:15 PM 71.6 °F 33.8 °F 25% 30.00 in 10.0 mi NW 13.8 mph 17.3 mph N/A   Clear
4:55 PM 69.8 °F 32.0 °F 25% 30.00 in 10.0 mi NNW 10.4 mph 17.3 mph N/A   Clear
5:15 PM 68.0 °F 30.2 °F 24% 30.01 in 10.0 mi NNW 11.5 mph 19.6 mph N/A   Clear
5:35 PM 68.0 °F 28.4 °F 23% 30.01 in 10.0 mi NNW 12.7 mph 17.3 mph N/A   Clear
5:55 PM 66.2 °F 26.6 °F 23% 30.02 in 10.0 mi NNW 11.5 mph - N/A   Clear
6:15 PM 64.4 °F 26.6 °F 24% 30.02 in 10.0 mi NNW 9.2 mph - N/A   Clear
6:35 PM 64.4 °F 26.6 °F 24% 30.04 in 10.0 mi NNW 10.4 mph - N/A   Clear
6:55 PM 62.6 °F 26.6 °F 26% 30.04 in 10.0 mi NW 10.4 mph - N/A   Clear
7:15 PM 60.8 °F 28.4 °F 29% 30.06 in 10.0 mi NW 8.1 mph - N/A   Clear
7:35 PM 60.8 °F 28.4 °F 29% 30.06 in 10.0 mi NW 10.4 mph - N/A   Clear
7:55 PM 60.8 °F 30.2 °F 31% 30.07 in 10.0 mi NW 11.5 mph - N/A   Clear
8:15 PM 60.8 °F 30.2 °F 31% 30.07 in 10.0 mi NNW 9.2 mph - N/A   Clear
8:55 PM 57.2 °F 32.0 °F 38% 30.08 in 10.0 mi NW 4.6 mph - N/A   Clear
9:15 PM 55.4 °F 32.0 °F 41% 30.09 in 10.0 mi NNW 4.6 mph - N/A   Clear
9:35 PM 53.6 °F 32.0 °F 44% 30.09 in 10.0 mi North 5.8 mph - N/A   Clear
9:55 PM 51.8 °F 33.8 °F 50% 30.10 in 10.0 mi NNW 6.9 mph - N/A   Clear
10:15 PM 53.6 °F 35.6 °F 51% 30.10 in 10.0 mi NNW 5.8 mph - N/A   Clear
10:35 PM 53.6 °F 37.4 °F 54% 30.11 in 10.0 mi North 6.9 mph - N/A   Clear
10:55 PM 51.8 °F 37.4 °F 58% 30.11 in 10.0 mi North 4.6 mph - N/A   Clear
11:15 PM 50.0 °F 37.4 °F 62% 30.10 in 10.0 mi North 4.6 mph - N/A   Clear
11:35 PM 51.8 °F 37.4 °F 58% 30.10 in 10.0 mi North 3.5 mph - N/A   Clear
11:55 PM 50.0 °F 37.4 °F 62% 30.10 in 10.0 mi Calm Calm - N/A   Clear